Location: *
(28.3500°N, 83.8300°E)
Time: 20:40:26
(UTC+00:00)

Daily predictions for brighter satellites

Satellite Brightness Start Highest point End
(mag) Time Altitude Azimuth Time Altitude Azimuth Time Altitude Azimuth
OAO 2 Rocket 4.1 12:12:32 10° W 12:17:38 49° NNW 12:22:47 10° ENE
CSL-04 Rocket 4.5 12:18:46 10° SE 12:23:32 30° ENE 12:28:18 10° N
YAOGAN 6 3.6 12:21:01 10° SE 12:24:11 27° ENE 12:27:20 10° NNE
YAOGAN 1 3.6 12:21:15 10° SE 12:24:45 24° ENE 12:28:15 10° NNE
SKYMED 2 3.6 12:22:53 10° NNE 12:27:14 89° E 12:31:34 10° SSW
Nadezhda 3 Rocket 4.1 12:24:22 10° S 12:30:36 89° E 12:36:55 10° N
Atlas Centaur 2 2.4 12:27:36 10° W 12:34:02 69° SSW 12:39:00 10° ESE
Cosmos 1821 Rocket 4.1 12:28:35 10° N 12:34:32 52° E 12:40:30 10° SSE
Okean-O 3.2 12:30:56 10° S 12:35:18 65° WSW 12:39:43 10° NNW
FUSE 4.4 12:33:42 10° WSW 12:38:52 51° S 12:43:19 14° E
Cosmos 1726 Rocket 3.5 12:35:32 10° S 12:39:56 81° E 12:44:21 10° N
NOAA 12 4.4 12:37:31 10° S 12:42:44 73° WSW 12:48:00 10° NNW
OAO 3 Rocket 3.7 12:37:53 10° W 12:42:44 57° NNW 12:47:01 13° ENE
Hubble Space Telescope 3.1 12:42:36 10° WSW 12:45:36 19° SSW 12:48:36 10° SSE
Cosmos 2058 Rocket 3.1 12:42:20 10° S 12:46:37 57° E 12:50:54 10° NNE
OAO 1 Rocket 4.5 12:45:20 10° WNW 12:50:38 68° NNE 12:54:28 19° E
Cosmos 1953 3.8 12:47:43 10° SSW 12:51:31 40° W 12:55:22 10° N
Cosmos 1934 Rocket 4.3 12:45:38 10° N 12:51:40 45° E 12:57:42 10° SSE
FengYun 1-2 T 4.2 12:46:56 10° SSE 12:52:35 79° ENE 12:58:13 10° N
Envisat 3.2 12:48:30 10° S 12:53:34 75° W 12:58:38 10° NNW
Abrixas rocket 1.9 12:52:28 10° SW 12:55:30 70° SE 12:57:01 26° ENE
Cosmos 1271 Rocket 2.7 12:53:29 10° N 12:57:26 64° E 13:01:23 10° SSE
Cosmos 2228 3.9 12:53:36 10° SSW 12:57:53 54° W 13:02:11 10° N
CSL-04 Debris 4.1 12:56:35 10° SSE 13:01:58 74° ENE 13:07:24 10° N
Cosmos 292 Rocket 3.7 13:01:02 10° SSW 13:05:47 87° ESE 13:10:32 10° NNE
Shi Jian 4 3.2 13:05:55 10° WSW 13:07:57 71° SSE 13:08:20 55° ESE
Cosmos 1703 3.9 13:05:33 10° NNE 13:08:45 32° ENE 13:08:45 32° ENE
Cosmos 921 Rocket 4.2 13:06:15 10° SSW 13:10:35 47° WNW 13:14:55 10° N
Cosmos 1939 Rocket 3.1 13:11:23 32° ESE 13:12:35 42° ENE 13:16:21 10° N
Cosmos 1726 2.6 13:11:11 10° SSW 13:14:48 59° W 13:18:25 10° N
ADEOS Rocket 4.1 13:09:54 10° NE 13:16:25 31° E 13:22:28 10° SSE
USA 238 DEB 3.8 13:14:24 10° S 13:20:44 49° ESE 13:24:45 23° NE
USA 238 3.8 13:14:31 10° S 13:20:51 49° ESE 13:24:46 23° NE
Cosmos 2285 Rocket 4.1 13:18:38 10° NNW 13:25:04 80° WSW 13:31:26 10° S
Cosmos 1354 Rocket 4.0 13:23:33 10° NNW 13:28:47 81° WSW 13:33:59 10° S
CZ-4 R/B 3.2 13:25:26 10° SSW 13:29:06 32° W 13:32:50 10° NNW
ASTRO E2 2.8 13:25:33 10° W 13:29:30 62° SSW 13:29:58 56° SSE
Lacrosse 5 rocket 3.4 13:29:38 10° N 13:30:41 15° N 13:30:41 15° N
Cosmos 2278 Rocket 2.1 13:27:43 10° SSW 13:33:23 90° WNW 13:39:05 10° NNE
Ariane Rocket 2.8 13:32:38 20° SSE 13:36:06 73° ENE 13:41:12 10° N
USA 234 3.2 13:35:16 22° NE 13:39:50 90° NW 13:46:23 10° SW
Meteosat 1 Rocket2 3.5 13:38:03 10° WSW 13:40:56 43° SSW 13:40:56 43° SSW
BREEZE-M DEB (TANK) 3.3 13:41:52 10° NW 13:46:44 57° WNW 13:46:44 57° WNW
Cosmos 1328 4.5 13:44:08 10° NNW 13:48:00 53° W 13:49:18 35° SSW
NOSS 3-2 (A) 3.1 13:43:21 10° SSW 13:48:42 65° ESE 13:48:42 65° ESE
CZ-4C R/B 3.4 13:41:03 10° NW 13:48:49 68° WSW 13:57:09 10° SSE
Cosmos 1242 Rocket 3.6 13:47:05 10° NNW 13:50:30 44° W 13:50:30 44° W
IUS-18 SRM-1 3.6 13:52:54 10° W 13:56:39 37° WSW 13:56:39 37° WSW
OAO 2 Rocket 4.3 13:58:03 10° WNW 14:02:35 40° N 14:02:35 40° N
Atlas Centaur 2 3.9 14:18:34 10° W 14:21:48 20° SW 14:21:48 20° SW
CZ-3B R/B 4.2 14:02:46 10° W 14:25:45 83° S 14:31:20 55° ESE
ADEOS Rocket 4.5 14:54:47 10° N 15:01:48 41° WNW 15:08:23 10° SW
Cosmos 2219 Rocket 4.3 21:21:36 21° ENE 21:21:36 21° ENE 21:24:26 10° NE
USA 234 4.2 21:59:42 10° ESE 22:05:45 42° NE 22:09:44 21° NNW
MSX 4.2 22:06:09 10° NNE 22:11:48 62° E 22:15:04 26° S
IDEFIX/ARIANE 42P 4.0 22:08:05 10° N 22:10:28 28° N 22:10:28 28° N
Cosmos 1844 Rocket 3.4 22:15:19 10° N 22:20:43 50° ENE 22:26:05 10° SE
Cosmos 2333 Rocket 2.2 22:22:06 71° N 22:22:06 71° N 22:27:13 10° NNE
Cosmos 1302 Rocket 4.3 22:29:01 52° S 22:29:01 52° S 22:33:00 10° S
Orbus 7S 3.8 22:32:41 73° SW 22:32:56 76° S 22:42:49 10° E
CZ-2C R/B 2.9 22:29:04 10° NNE 22:34:12 62° E 22:39:16 10° S
ERBS 4.1 22:37:59 27° NE 22:37:59 27° NE 22:39:39 10° NE
Cosmos 1844 4.3 22:32:04 10° N 22:37:45 57° ENE 22:43:22 10° SSE
ATLAS 2AS CENTAUR R/B 2.9 22:33:07 25° SSW 22:38:09 85° WNW 22:46:17 10° NNE
PAYLOAD A 3.8 22:35:16 10° NNE 22:40:07 88° WNW 22:45:10 10° SSW
Delta 142 3.3 22:42:14 87° NW 22:42:16 88° NNW 22:46:22 10° E
GPS 2-14 Rocket1 4.3 22:46:26 22° S 22:46:26 22° S 22:49:22 10° ESE
SEDSat Delta rocket 4.1 22:50:40 34° SSW 22:50:57 34° SSW 22:55:50 10° SE
COSMOS 2455 4.3 22:56:14 19° NW 22:56:14 19° NW 22:59:12 10° N
Celestis-02/Orion 38 4.5 22:53:44 10° SSE 22:58:50 89° ENE 23:04:02 10° NNW
H-2A R/B 4.1 22:56:39 10° N 22:58:17 21° NNW 22:58:17 21° NNW
Cosmos 1025 Rocket 3.0 22:58:35 28° SSW 23:00:37 56° W 23:04:48 10° N
Cosmos 2219 Rocket 2.8 23:03:24 32° WNW 23:03:42 32° WNW 23:08:39 10° N
Cosmos 2237 Rocket 2.1 23:01:30 10° SSW 23:07:09 90° NNW 23:12:51 10° NNE
Cosmos 1536 Rocket 3.9 23:07:25 37° W 23:07:44 38° W 23:11:46 10° NNW
CZ-4B R/B 3.8 23:05:01 10° N 23:08:56 62° WNW 23:13:01 10° SSW
Cosmos 1544 Rocket 4.0 23:08:35 22° NW 23:10:44 36° W 23:14:41 10° SSW
Cosmos 2184 Rocket 3.9 23:06:03 10° S 23:12:13 79° W 23:18:27 10° N
COSMOS 2428 3.6 23:11:55 26° WNW 23:12:36 27° WNW 23:17:20 10° N
Cosmos 1190 Rocket 4.0 23:09:02 10° SSW 23:14:20 89° ESE 23:19:39 10° NNE
ALOS 4.3 23:10:22 10° NE 23:14:29 30° E 23:18:34 10° SSE
Cosmos 1766 4.4 23:18:27 25° WSW 23:18:27 25° WSW 23:20:50 10° SSW
Delta 7925 Rocket 4.3 23:14:45 16° SW 23:18:58 42° SSE 23:23:36 10° E
Cosmos 407 Rocket 3.4 23:14:27 10° SSW 23:19:36 70° WNW 23:24:44 10° N
USA 32 4.1 23:15:09 10° SSW 23:20:11 51° W 23:25:17 10° N
Cosmos 1980 3.7 23:17:44 10° SSW 23:23:16 58° WNW 23:28:51 10° N
Cosmos 921 Rocket 3.8 23:19:13 10° N 23:23:23 52° ENE 23:27:28 10° SSE
Meteor 1-4 Rocket 2.7 23:25:21 10° S 23:28:55 74° E 23:32:26 10° N
Milstar 3 3.5 23:23:39 10° SW 23:30:16 50° SSE 23:37:23 10° E
SeaSat 1 3.3 23:28:54 10° NE 23:33:43 53° ESE 23:38:29 10° S
BREEZE-M DEB (TANK) 2.6 23:30:20 10° NW 23:33:59 42° NNE 23:36:06 10° ESE
CZ-4B R/B 3.9 23:31:01 10° NNE 23:36:12 56° ESE 23:41:22 10° S
Meteor 1-31 Rocket 3.8 23:33:16 10° NNW 23:36:19 24° WNW 23:39:22 10° SW
Okean 1-7 Rocket 4.0 23:36:02 10° S 23:40:23 68° E 23:44:48 10° NNE
Cosmos 1470 2.8 23:42:35 10° NNW 23:46:24 53° W 23:50:11 10° S
Cosmos 1707 3.3 23:43:13 10° SSW 23:46:48 35° W 23:50:24 10° NNW
Milstar 3 Cent rocket 2.6 23:41:44 10° WSW 23:46:50 48° SSE 23:51:20 10° E
BREEZE-M DEB (TANK) 3.5 23:33:55 10° SW 23:48:09 70° NW 23:51:39 10° NE
USA 234 3.7 23:42:31 10° SSE 23:48:37 42° SW 23:54:44 10° WNW
NOSS 3-4 (A) 4.0 23:43:35 10° WSW 23:48:59 35° NW 23:54:35 10° N
NOSS 3-4 (C) 4.0 23:43:37 10° WSW 23:49:04 36° NW 23:54:42 10° N
Cosmos 1606 Rocket 3.9 23:45:54 10° N 23:50:11 69° E 23:54:29 10° SSE
Cosmos 1954 Rocket 4.0 23:49:08 10° SSW 23:54:23 70° WNW 23:59:36 10° N
Cosmos 1484 Rocket 3.3 23:51:03 10° N 23:54:31 36° WNW 23:58:02 10° SW
